Mojave, CA

3:26 AM PST on December 08, 2019 (GMT -0800)
Mojave

Weather History for KMHV - May, 2019

Change the Weather History Date:

Thursday, May 16, 2019

  Actual Average Record
Temperature  
Mean Temperature 55 °F -  
Max Temperature 60 °F 81 °F 95 °F (2006)
Min Temperature 50 °F 54 °F 42 °F (1977)
Degree Days  
Heating Degree Days 10    
Growing Degree Days 5 (Base 50)    
Moisture  
Dew Point 40 °F    
Average Humidity 60    
Maximum Humidity 82    
Minimum Humidity 36    
Precipitation  
Precipitation 0.00 in - - ()
Sea Level Pressure  
Sea Level Pressure 29.86 in    
Wind  
Wind Speed 20 mph (WSW)    
Max Wind Speed 40 mph    
Max Gust Speed 53 mph    
Visibility 10 miles    
Events      
Averages and records for this station are not official NWS values.
T = Trace of Precipitation, MM = Missing Value Source: NWS Daily Summary

Daily Weather History Graph

Daily Weather History Graph

Search for Another Location

Airport or City:

Astronomy

May. 16, 2019 Rise Set
Actual Time 5:48 AM PDT 7:50 PM PDT
Civil Twilight 5:20 AM PDT 8:18 PM PDT
Nautical Twilight 4:45 AM PDT 8:52 PM PDT
Astronomical Twilight 4:09 AM PDT 9:29 PM PDT
Moon 5:42 PM PDT (5/16) 4:39 AM PDT (5/16)
Length of Visible Light 14h 58m
Length of Day
14h 01m
Waxing Gibbous, 95% of the Moon is Illuminated
May 16
Waxing Gibbous
May 18
Full
May 26
Last Quarter
Jun 3
New
Jun 9
First Quarter

Hourly Weather History & Observations

Time (PDT) Temp. Dew Point Humidity Pressure Visibility Wind Dir Wind Speed Gust Speed Precip Events Conditions
12:00 AM 55.4 °F 42.8 °F 63% 29.87 in 10.0 mi SW 17.3 mph 25.3 mph N/A   Overcast
12:20 AM 55.4 °F 42.8 °F 63% 29.87 in 10.0 mi SSW 15.0 mph - N/A   Overcast
12:40 AM 53.6 °F 42.8 °F 67% 29.86 in 10.0 mi SSW 15.0 mph - N/A   Overcast
1:00 AM 53.6 °F 44.6 °F 72% 29.87 in 10.0 mi SSW 13.8 mph 21.9 mph N/A   Overcast
1:20 AM 53.6 °F 42.8 °F 67% 29.86 in 10.0 mi SSW 18.4 mph 24.2 mph N/A   Overcast
1:40 AM 53.6 °F 44.6 °F 72% 29.86 in 10.0 mi SSW 18.4 mph - N/A   Overcast
2:00 AM 53.6 °F 44.6 °F 72% 29.85 in 10.0 mi SSW 20.7 mph - N/A   Overcast
2:20 AM 51.8 °F 44.6 °F 76% 29.84 in 10.0 mi SSW 13.8 mph 20.7 mph N/A   Overcast
2:40 AM 51.8 °F 44.6 °F 76% 29.84 in 10.0 mi SSW 12.7 mph 23.0 mph N/A   Scattered Clouds
3:00 AM 51.8 °F 44.6 °F 76% 29.84 in 10.0 mi SW 8.1 mph - N/A   Partly Cloudy
3:20 AM 51.8 °F 46.4 °F 82% 29.83 in 10.0 mi SSW 18.4 mph - N/A   Mostly Cloudy
3:40 AM 51.8 °F 46.4 °F 82% 29.81 in 10.0 mi SSW 23.0 mph 29.9 mph N/A   Overcast
4:00 AM 51.8 °F 44.6 °F 76% 29.81 in 10.0 mi SSW 23.0 mph 29.9 mph N/A   Overcast
4:20 AM 51.8 °F 44.6 °F 76% 29.81 in 10.0 mi SSW 21.9 mph 29.9 mph N/A   Overcast
4:40 AM 51.8 °F 44.6 °F 76% 29.81 in 10.0 mi SW 15.0 mph 20.7 mph N/A   Overcast
5:00 AM 51.8 °F 44.6 °F 76% 29.81 in 10.0 mi SSW 16.1 mph 25.3 mph N/A   Mostly Cloudy
5:20 AM 51.8 °F 44.6 °F 76% 29.81 in 10.0 mi SW 16.1 mph - N/A   Mostly Cloudy
5:40 AM 51.8 °F 44.6 °F 76% 29.80 in 10.0 mi SW 16.1 mph - N/A   Overcast
6:00 AM 51.8 °F 44.6 °F 76% 29.80 in 10.0 mi SSW 12.7 mph - N/A   Overcast
6:20 AM 51.8 °F 44.6 °F 76% 29.80 in 10.0 mi SSW 15.0 mph - N/A   Overcast
6:40 AM 53.6 °F 44.6 °F 72% 29.80 in 10.0 mi SSW 17.3 mph - N/A   Mostly Cloudy
7:00 AM 53.6 °F 44.6 °F 72% 29.82 in 10.0 mi SSW 11.5 mph - N/A   Mostly Cloudy
7:20 AM 53.6 °F 44.6 °F 72% 29.82 in 10.0 mi SSW 13.8 mph - N/A   Overcast
7:40 AM 55.4 °F 44.6 °F 67% 29.82 in 10.0 mi SW 18.4 mph - N/A   Overcast
8:00 AM 55.4 °F 44.6 °F 67% 29.82 in 10.0 mi SW 16.1 mph 23.0 mph N/A   Overcast
8:20 AM 55.4 °F 44.6 °F 67% 29.82 in 10.0 mi SSW 13.8 mph - N/A   Overcast
8:40 AM 57.2 °F 44.6 °F 63% 29.82 in 10.0 mi SW 24.2 mph - N/A   Overcast
9:00 AM 55.4 °F 46.4 °F 72% 29.83 in 10.0 mi WSW 21.9 mph 29.9 mph N/A   Overcast
9:20 AM 55.4 °F 46.4 °F 72% 29.83 in 10.0 mi WSW 23.0 mph - N/A   Overcast
9:40 AM 55.4 °F 42.8 °F 63% 29.83 in 10.0 mi West 24.2 mph 32.2 mph N/A   Overcast
10:00 AM 53.6 °F 41.0 °F 62% 29.82 in 10.0 mi West 27.6 mph - N/A   Mostly Cloudy
10:20 AM 55.4 °F 41.0 °F 58% 29.83 in 10.0 mi WNW 25.3 mph 33.4 mph N/A   Overcast
10:40 AM 53.6 °F 39.2 °F 58% 29.83 in 10.0 mi WNW 26.5 mph 38.0 mph N/A   Overcast
11:00 AM 55.4 °F 37.4 °F 51% 29.83 in 10.0 mi WNW 34.5 mph 47.2 mph N/A   Mostly Cloudy
11:20 AM 53.6 °F 35.6 °F 51% 29.83 in 10.0 mi WNW 38.0 mph 51.8 mph N/A   Mostly Cloudy
11:40 AM 55.4 °F 35.6 °F 47% 29.83 in 10.0 mi WNW 40.3 mph 50.6 mph N/A   Scattered Clouds
12:00 PM 55.4 °F 35.6 °F 47% 29.84 in 10.0 mi WNW 34.5 mph 52.9 mph N/A   Clear
12:20 PM 57.2 °F 35.6 °F 44% 29.85 in 10.0 mi WNW 39.1 mph 48.3 mph N/A   Clear
12:40 PM 57.2 °F 35.6 °F 44% 29.85 in 10.0 mi WNW 34.5 mph 43.7 mph N/A   Clear
1:00 PM 57.2 °F 37.4 °F 48% 29.84 in 10.0 mi WNW 40.3 mph 47.2 mph N/A   Clear
1:20 PM 57.2 °F 35.6 °F 44% 29.85 in 10.0 mi West 28.8 mph 48.3 mph N/A   Clear
1:40 PM 57.2 °F 35.6 °F 44% 29.85 in 10.0 mi West 32.2 mph 43.7 mph N/A   Clear
2:00 PM 59.0 °F 33.8 °F 39% 29.85 in 10.0 mi WNW 28.8 mph 42.6 mph N/A   Clear
2:20 PM 60.8 °F 33.8 °F 36% 29.85 in 10.0 mi WNW 32.2 mph 42.6 mph N/A   Clear
2:40 PM 59.0 °F 32.0 °F 36% 29.86 in 10.0 mi WNW 24.2 mph 44.9 mph N/A   Clear
3:00 PM 59.0 °F 33.8 °F 39% 29.86 in 10.0 mi WNW 32.2 mph 39.1 mph N/A   Clear
3:20 PM 59.0 °F 33.8 °F 39% 29.88 in 10.0 mi West 23.0 mph 33.4 mph N/A   Clear
3:40 PM 59.0 °F 33.8 °F 39% 29.87 in 10.0 mi West 26.5 mph 35.7 mph N/A   Scattered Clouds
4:00 PM 59.0 °F 35.6 °F 42% 29.88 in 10.0 mi West 27.6 mph 34.5 mph N/A   Mostly Cloudy
4:20 PM 57.2 °F 37.4 °F 48% 29.88 in 10.0 mi West 23.0 mph 36.8 mph N/A   Mostly Cloudy
4:40 PM 57.2 °F 37.4 °F 48% 29.88 in 10.0 mi West 25.3 mph - N/A   Scattered Clouds
5:00 PM 59.0 °F 35.6 °F 42% 29.87 in 10.0 mi WNW 25.3 mph 39.1 mph N/A   Clear
5:20 PM 57.2 °F 33.8 °F 41% 29.88 in 10.0 mi West 26.5 mph 35.7 mph N/A   Clear
5:40 PM 57.2 °F 33.8 °F 41% 29.88 in 10.0 mi West 26.5 mph 36.8 mph N/A   Clear
6:00 PM 55.4 °F 33.8 °F 44% 29.88 in 10.0 mi West 20.7 mph 27.6 mph N/A   Partly Cloudy
6:20 PM 55.4 °F 33.8 °F 44% 29.88 in 10.0 mi WSW 24.2 mph 35.7 mph N/A   Partly Cloudy
6:40 PM 55.4 °F 33.8 °F 44% 29.88 in 10.0 mi WSW 27.6 mph 33.4 mph N/A   Mostly Cloudy
7:00 PM 55.4 °F 35.6 °F 47% 29.89 in 10.0 mi West 20.7 mph 29.9 mph N/A   Partly Cloudy
7:20 PM 53.6 °F 35.6 °F 51% 29.89 in 10.0 mi West 24.2 mph 31.1 mph N/A   Clear
7:40 PM 53.6 °F 35.6 °F 51% 29.90 in 10.0 mi West 21.9 mph - N/A   Clear
8:00 PM 53.6 °F 37.4 °F 54% 29.91 in 10.0 mi West 12.7 mph 23.0 mph N/A   Scattered Clouds
8:20 PM 53.6 °F 37.4 °F 54% 29.91 in 10.0 mi West 17.3 mph 25.3 mph N/A   Overcast
8:40 PM 53.6 °F 39.2 °F 58% 29.92 in 10.0 mi West 19.6 mph 26.5 mph N/A   Overcast
9:00 PM 50.0 °F 42.8 °F 76% 29.93 in 10.0 mi West 26.5 mph 40.3 mph N/A   Overcast
9:20 PM 50.0 °F 42.8 °F 76% 29.94 in 10.0 mi West 24.2 mph - N/A   Overcast
9:40 PM 50.0 °F 41.0 °F 71% 29.95 in 10.0 mi West 15.0 mph 21.9 mph N/A   Overcast
10:00 PM 50.0 °F 41.0 °F 71% 29.96 in 10.0 mi West 17.3 mph 23.0 mph N/A   Overcast
10:20 PM 50.0 °F 41.0 °F 71% 29.96 in 10.0 mi West 18.4 mph - N/A   Overcast
10:40 PM 50.0 °F 39.2 °F 66% 29.95 in 10.0 mi West 17.3 mph 24.2 mph N/A   Overcast
11:00 PM 50.0 °F 41.0 °F 71% 29.96 in 10.0 mi West 18.4 mph 25.3 mph N/A   Overcast
11:20 PM 50.0 °F 41.0 °F 71% 29.95 in 10.0 mi West 16.1 mph 23.0 mph N/A   Overcast
11:40 PM 50.0 °F 39.2 °F 66% 29.96 in 10.0 mi WSW 18.4 mph - N/A   Mostly Cloudy